TimeEST,TemperatureF,Dew PointF,Humidity,Sea Level PressureIn,VisibilityMPH,Wind Direction,Wind SpeedMPH,Gust SpeedMPH,PrecipitationIn,Events,Conditions,WindDirDegrees,DateUTC
12:15 AM,44.1,44.1,100,30.09,1.0,Calm,Calm,-,N/A,,Overcast,0,2013-01-12 05:15:00
12:35 AM,44.2,44.2,100,30.10,1.5,Calm,Calm,-,N/A,,Overcast,0,2013-01-12 05:35:00
1:15 AM,44.2,44.2,100,30.10,2.0,Calm,Calm,-,N/A,,Overcast,0,2013-01-12 06:15:00
1:35 AM,44.2,44.2,100,30.11,2.0,Calm,Calm,-,N/A,,Overcast,0,2013-01-12 06:35:00
1:55 AM,44.1,44.1,100,30.11,1.8,Calm,Calm,-,N/A,,Overcast,0,2013-01-12 06:55:00
2:15 AM,44.1,44.1,100,30.11,1.2,Calm,Calm,-,N/A,,Overcast,0,2013-01-12 07:15:00
2:35 AM,44.1,44.1,100,30.11,1.0,Calm,Calm,-,N/A,,Overcast,0,2013-01-12 07:35:00
2:55 AM,44.2,44.2,100,30.11,1.2,Calm,Calm,-,N/A,,Overcast,0,2013-01-12 07:55:00
3:15 AM,44.4,44.4,100,30.11,1.0,Calm,Calm,-,N/A,,Overcast,0,2013-01-12 08:15:00
3:35 AM,44.1,44.1,100,30.11,0.5,Calm,Calm,-,N/A,Fog,Fog,0,2013-01-12 08:35:00
3:55 AM,44.4,44.4,100,30.10,0.5,Calm,Calm,-,N/A,Fog,Fog,0,2013-01-12 08:55:00
4:15 AM,43.7,43.7,100,30.11,0.5,Calm,Calm,-,N/A,Fog,Fog,0,2013-01-12 09:15:00
4:35 AM,43.7,43.7,100,30.10,0.8,Calm,Calm,-,N/A,,Overcast,0,2013-01-12 09:35:00
4:55 AM,43.7,43.7,100,30.10,0.5,Calm,Calm,-,N/A,Fog,Fog,0,2013-01-12 09:55:00
5:15 AM,43.2,43.2,100,30.11,0.8,Calm,Calm,-,N/A,,Overcast,0,2013-01-12 10:15:00
5:35 AM,43.7,43.7,100,30.11,0.5,ENE,3.5,-,N/A,Fog,Fog,70,2013-01-12 10:35:00
5:55 AM,43.0,43.0,100,30.12,0.5,Calm,Calm,-,N/A,Fog,Fog,0,2013-01-12 10:55:00
6:15 AM,43.2,43.2,100,30.13,0.2,Calm,Calm,-,N/A,Fog,Fog,0,2013-01-12 11:15:00
6:35 AM,43.0,43.0,100,30.13,0.5,North,3.5,-,N/A,Fog,Fog,350,2013-01-12 11:35:00
6:55 AM,42.4,42.4,100,30.14,0.8,NE,3.5,-,N/A,,Overcast,40,2013-01-12 11:55:00
7:15 AM,42.3,42.3,100,30.14,0.5,NE,4.6,-,N/A,Fog,Fog,40,2013-01-12 12:15:00
7:35 AM,42.3,42.3,100,30.15,0.2,Calm,Calm,-,N/A,Fog,Fog,0,2013-01-12 12:35:00
7:55 AM,41.9,41.9,100,30.16,0.2,North,3.5,-,N/A,Fog,Fog,360,2013-01-12 12:55:00
8:15 AM,42.1,42.1,100,30.16,0.2,NE,3.5,-,N/A,Fog,Fog,50,2013-01-12 13:15:00
8:35 AM,41.9,41.9,100,30.16,0.2,North,4.6,-,N/A,Fog,Fog,10,2013-01-12 13:35:00
8:55 AM,42.3,42.3,100,30.16,0.5,North,3.5,-,N/A,Fog,Fog,360,2013-01-12 13:55:00
9:15 AM,42.4,42.4,100,30.16,0.5,Calm,Calm,-,N/A,Fog,Fog,0,2013-01-12 14:15:00
9:35 AM,42.8,42.8,100,30.17,0.8,Calm,Calm,-,N/A,,Overcast,0,2013-01-12 14:35:00
9:55 AM,43.0,43.0,100,30.17,0.5,Calm,Calm,-,N/A,Fog,Fog,0,2013-01-12 14:55:00
10:15 AM,43.2,43.2,100,30.18,0.5,Calm,Calm,-,N/A,Fog,Fog,0,2013-01-12 15:15:00
10:35 AM,43.3,43.3,100,30.17,2.0,Calm,Calm,-,N/A,,Overcast,0,2013-01-12 15:35:00
10:55 AM,43.9,43.9,100,30.16,1.5,North,3.5,-,N/A,,Overcast,10,2013-01-12 15:55:00
11:15 AM,44.6,44.6,100,30.17,0.5,Calm,Calm,-,N/A,Fog,Fog,0,2013-01-12 16:15:00
11:35 AM,44.6,44.6,100,30.16,1.0,Calm,Calm,-,N/A,,Overcast,0,2013-01-12 16:35:00
11:55 AM,44.8,44.8,100,30.15,1.2,Calm,Calm,-,N/A,,Overcast,0,2013-01-12 16:55:00
12:15 PM,45.5,45.5,100,30.15,2.5,Calm,Calm,-,N/A,,Overcast,0,2013-01-12 17:15:00
12:35 PM,45.9,45.9,100,30.13,2.5,Calm,Calm,-,N/A,,Overcast,0,2013-01-12 17:35:00
12:55 PM,45.9,45.9,100,30.13,1.8,Calm,Calm,-,N/A,,Overcast,0,2013-01-12 17:55:00
1:15 PM,46.4,46.4,100,30.12,3.0,Calm,Calm,-,N/A,,Overcast,0,2013-01-12 18:15:00
1:35 PM,47.3,47.3,100,30.13,4.0,Calm,Calm,-,N/A,,Overcast,0,2013-01-12 18:35:00
1:55 PM,47.5,47.5,100,30.13,5.0,SSW,4.6,-,N/A,,Overcast,200,2013-01-12 18:55:00
2:15 PM,47.7,47.7,100,30.12,5.0,Calm,Calm,-,N/A,,Overcast,0,2013-01-12 19:15:00
2:35 PM,48.4,48.4,100,30.13,7.0,Calm,Calm,-,N/A,,Overcast,0,2013-01-12 19:35:00
2:55 PM,49.1,49.1,100,30.12,7.0,Calm,Calm,-,N/A,,Overcast,0,2013-01-12 19:55:00
3:15 PM,49.5,49.5,100,30.12,7.0,Calm,Calm,-,N/A,,Overcast,0,2013-01-12 20:15:00
3:35 PM,50.0,50.0,100,30.13,7.0,Calm,Calm,-,N/A,,Overcast,0,2013-01-12 20:35:00
3:55 PM,50.0,50.0,100,30.13,7.0,Calm,Calm,-,N/A,,Overcast,0,2013-01-12 20:55:00
4:15 PM,49.5,49.5,100,30.13,7.0,Calm,Calm,-,N/A,,Overcast,0,2013-01-12 21:15:00
4:35 PM,49.1,49.1,100,30.14,7.0,Calm,Calm,-,N/A,,Overcast,0,2013-01-12 21:35:00
4:55 PM,48.7,48.7,100,30.14,7.0,Calm,Calm,-,N/A,,Overcast,0,2013-01-12 21:55:00
5:15 PM,48.7,48.7,100,30.14,5.0,Calm,Calm,-,N/A,,Overcast,0,2013-01-12 22:15:00
5:35 PM,48.6,48.6,100,30.14,7.0,Calm,Calm,-,N/A,,Overcast,0,2013-01-12 22:35:00
5:55 PM,48.4,48.4,100,30.13,4.0,Calm,Calm,-,N/A,,Overcast,0,2013-01-12 22:55:00
6:15 PM,48.2,48.2,100,30.13,0.8,Calm,Calm,-,N/A,,Overcast,0,2013-01-12 23:15:00
6:35 PM,48.2,48.2,100,30.13,1.2,Calm,Calm,-,N/A,,Overcast,0,2013-01-12 23:35:00
6:55 PM,48.2,48.2,100,30.13,0.5,Calm,Calm,-,N/A,Fog,Fog,0,2013-01-12 23:55:00
7:15 PM,47.8,47.8,100,30.13,0.2,Calm,Calm,-,N/A,Fog,Fog,0,2013-01-13 00:15:00
7:35 PM,47.8,47.8,100,30.13,0.2,Calm,Calm,-,N/A,Fog,Fog,0,2013-01-13 00:35:00
7:55 PM,47.7,47.7,100,30.13,0.2,Calm,Calm,-,N/A,Fog,Fog,0,2013-01-13 00:55:00
8:15 PM,47.3,47.3,100,30.14,0.2,Calm,Calm,-,N/A,Fog,Fog,0,2013-01-13 01:15:00
8:35 PM,47.5,47.5,100,30.13,0.2,Calm,Calm,-,N/A,Fog,Fog,0,2013-01-13 01:35:00
8:55 PM,47.3,47.3,100,30.14,0.2,Calm,Calm,-,N/A,Fog,Fog,0,2013-01-13 01:55:00
9:15 PM,47.3,47.3,100,30.14,0.5,Calm,Calm,-,N/A,Fog,Fog,0,2013-01-13 02:15:00
9:35 PM,47.3,47.3,100,30.14,0.5,Calm,Calm,-,N/A,Fog,Fog,0,2013-01-13 02:35:00
9:55 PM,47.5,47.5,100,30.13,0.5,Calm,Calm,-,N/A,Fog,Fog,0,2013-01-13 02:55:00
10:15 PM,47.5,47.5,100,30.13,0.2,Calm,Calm,-,N/A,Fog,Fog,0,2013-01-13 03:15:00
10:35 PM,47.5,47.5,100,30.12,0.2,Calm,Calm,-,N/A,Fog,Fog,0,2013-01-13 03:35:00
10:55 PM,47.7,47.7,100,30.13,0.2,Calm,Calm,-,N/A,Fog,Fog,0,2013-01-13 03:55:00
11:15 PM,47.7,47.7,100,30.14,0.2,SW,3.5,-,N/A,Fog,Fog,220,2013-01-13 04:15:00
11:35 PM,47.7,47.7,100,30.13,0.2,Calm,Calm,-,N/A,Fog,Fog,0,2013-01-13 04:35:00
11:55 PM,47.5,47.5,100,30.13,0.2,South,3.5,-,N/A,Fog,Fog,170,2013-01-13 04:55:00